Tracking 31029 objects as of 16-Jul-2025
HD Live streaming from Space Station
objects crossing your sky now

COSMOS 860 COOLANT

Track COSMOS 860 COOLANT now!
10-day predictions


NORAD ID: 29195
Int'l Code: 1976-103H
Perigee: 889.6 km
Apogee: 1,002.2 km
Inclination: 64.7 °
Period: 103.8 minutes
Semi major axis: 7316 km
RCS: 0.0092 m2 (small)
Launch date: October 17, 1976
Source: Commonwealth of Independent States (former USSR) (CIS)
Launch site: TYURATAM MISSILE AND SPACE COMPLEX (TTMTR)

Note: This is SATELLITE DEBRIS
Your satellite tracking list
Your tracking list is empty




NASA's NSSDC Master Catalog

Two Line Element Set (TLE):
1 29195U 76103H   25193.66647908  .00000059  00000-0  12504-3 0  9998
2 29195  64.6964 176.5267 0076979 271.4519  87.7723 13.87108949592576
Source of the keplerian elements: AFSPC